Wind_Speed
10 9 8 6 5 5 4 4 5 7 8 9 10 10 9 9 8 7 5 4 3 2 2 2 1 1 2 3 4 4 5 6 6 6 6 7 6 6 6 6 7 7 7 7 7 7 6 5 5
11 10 9 7 6 5 5 5 5 6 8 9 10 11 10 10 9 7 6 4 4 3 2 1 1 1 2 3 4 4 6 6 7 7 7 7 8 7 7 7 7 7 8 8 7 7 6 5 5
12 11 10 8 7 7 6 6 7 7 8 9 10 10 10 10 9 7 6 5 4 3 3 1 0 2 3 4 5 5 6 7 8 8 8 9 9 9 8 8 8 8 8 8 8 7 6 5 5
13 13 12 10 9 8 8 7 7 8 9 10 10 11 10 9 8 7 6 5 5 4 3 1 1 2 3 4 5 6 7 8 8 9 9 9 9 9 9 8 8 8 8 8 7 7 7 6 6
13 13 12 10 9 9 9 8 8 8 9 10 11 11 10 9 7 6 5 5 5 4 3 1 1 2 3 4 6 7 7 8 8 9 9 9 9 9 9 9 9 9 9 8 7 7 7 7 7
14 13 12 11 9 9 9 9 9 9 10 11 11 10 9 8 8 7 6 5 4 3 2 1 1 2 4 5 5 6 7 8 8 8 9 9 9 9 9 9 9 9 9 8 7 7 7 7 7
15 14 13 11 10 10 10 9 10 11 10 11 11 10 9 8 8 7 6 6 4 3 2 2 2 3 4 5 6 7 7 8 8 8 9 10 10 9 9 9 9 9 9 9 8 8 8 8 8
16 14 13 12 11 11 11 10 10 10 10 10 10 10 9 8 7 7 6 5 4 3 2 2 3 3 4 4 5 6 7 7 8 9 9 9 9 9 9 9 9 9 9 9 9 9 8 8 8
16 15 14 13 12 11 11 11 10 10 9 9 9 9 8 8 7 6 5 4 3 3 2 3 3 3 4 4 5 6 7 8 8 8 9 9 9 9 9 9 10 10 10 10 9 9 9 9 8
17 15 15 14 13 12 12 11 10 10 9 9 8 9 8 7 6 5 5 3 3 2 2 3 3 3 3 4 5 6 6 7 8 8 9 9 9 9 10 10 10 10 10 10 10 9 9 9 9
17 16 15 15 14 13 13 12 11 10 10 9 9 9 8 7 6 5 4 3 2 2 2 2 2 2 3 4 5 6 6 6 7 8 8 9 9 9 10 10 11 11 10 10 10 10 10 9 9
18 17 16 16 15 15 13 12 11 11 10 9 9 9 8 7 7 5 4 3 2 2 2 2 2 3 3 4 5 5 5 6 7 8 8 8 9 10 10 11 11 11 11 11 11 10 10 10 9
18 18 17 16 15 14 13 13 12 11 11 10 9 9 8 8 7 5 4 3 2 2 1 2 2 3 3 3 4 5 5 6 7 7 8 9 9 10 11 11 11 11 11 11 11 11 10 9 9
18 18 17 16 15 16 14 13 12 12 11 10 9 10 9 8 6 5 4 3 3 2 2 2 2 3 3 4 4 4 5 6 7 8 8 9 10 10 10 11 11 11 11 11 11 11 10 9 9
18 17 16 16 16 16 15 14 14 12 11 10 9 9 8 7 6 5 4 3 2 2 2 2 2 3 3 3 4 4 5 5 6 7 8 9 9 10 11 11 12 12 12 11 11 11 10 9 9
17 17 16 15 15 15 15 15 15 13 11 10 9 8 7 7 6 5 5 4 3 2 2 2 2 3 3 3 4 4 5 5 6 7 8 8 9 10 11 12 12 12 12 11 11 11 10 10 9
17 16 16 15 14 15 15 14 14 14 12 11 10 9 8 7 7 6 5 4 4 3 2 2 2 2 2 3 3 4 4 5 6 7 7 8 9 10 10 11 11 12 12 11 11 10 10 9 9
16 16 15 15 14 14 14 14 14 13 12 11 11 10 9 7 7 6 5 4 4 3 3 2 2 2 2 2 2 3 4 5 6 7 8 8 9 9 10 11 11 12 12 12 11 11 10 9 9
16 16 14 13 13 14 14 13 13 12 11 10 9 9 8 8 7 6 6 4 4 3 2 2 2 2 2 2 2 3 4 4 5 6 7 8 8 9 10 11 12 12 12 12 12 11 10 10 9
14 15 14 13 13 13 12 12 12 11 10 9 9 9 8 8 7 6 6 5 4 3 3 2 2 2 2 2 2 3 3 4 5 6 7 8 8 9 10 10 11 12 13 13 13 12 11 10 9
13 13 12 12 12 12 11 11 10 10 10 9 9 8 8 7 7 6 6 5 4 4 3 3 2 2 2 2 2 3 3 4 4 5 6 7 8 9 9 10 11 12 13 14 14 13 12 11 10
11 13 12 11 12 11 10 10 10 10 10 10 9 8 7 7 7 6 6 6 5 5 4 4 3 3 3 3 3 3 3 3 4 5 5 6 7 8 9 10 11 12 13 13 14 14 13 11 11
11 11 11 10 10 10 10 10 10 11 11 10 9 8 7 7 7 7 7 6 6 6 5 5 4 4 4 4 3 3 3 3 4 4 5 6 7 8 9 10 10 11 12 13 13 14 13 12 11
11 10 10 10 9 9 10 10 11 11 11 10 8 8 8 8 8 7 7 6 6 6 6 6 5 5 5 4 4 3 3 3 3 4 4 5 6 7 9 10 10 11 11 12 13 13 12 12 11
11 11 10 9 9 9 9 9 9 10 10 10 8 8 8 8 8 7 7 7 7 7 7 6 6 6 5 5 4 4 3 3 4 4 4 5 6 7 9 10 11 11 12 12 13 12 12 12 12
11 11 11 9 9 8 8 8 8 9 9 9 8 8 8 8 8 8 7 7 7 7 6 6 6 6 6 6 5 4 4 4 4 4 4 5 6 7 9 10 11 11 12 12 13 12 12 12 12
10 10 10 9 8 7 7 8 8 9 9 8 8 8 8 8 8 8 8 7 7 6 6 6 6 6 6 6 5 5 4 4 4 4 4 5 6 8 10 11 11 11 12 12 13 12 13 13 13
10 10 10 9 8 7 7 7 8 9 9 9 8 8 8 9 8 8 8 7 7 6 6 6 6 6 6 6 5 5 4 4 4 4 5 6 7 8 10 11 11 12 13 13 13 14 14 14 14
9 10 9 9 9 8 7 7 8 9 10 9 9 9 8 8 8 7 7 6 6 6 6 6 6 5 6 6 6 6 5 4 4 5 6 7 8 10 10 11 12 13 14 14 15 16 16 16 16
10 9 9 9 9 9 9 8 9 10 9 10 10 10 9 9 8 8 7 7 7 7 7 7 7 6 5 5 6 6 5 5 6 7 8 9 10 11 12 13 14 14 15 16 16 17 17 17 18
Wind_Direction
222 222 228 230 229 224 216 210 206 199 197 197 191 184 183 184 182 184 179 175 164 152 143 135 86 42 15 1 1 355 349 347 346 346 344 342 340 337 334 334 333 330 326 322 320 317 313 304 296
224 224 227 229 228 216 208 207 198 190 188 188 185 184 184 183 184 185 183 181 174 170 164 149 63 357 346 352 352 345 339 342 345 345 343 341 341 339 337 338 337 332 327 323 320 318 313 304 295
222 222 224 223 223 207 204 203 198 188 177 177 179 181 180 177 178 180 179 181 180 176 175 172 290 323 334 343 340 337 338 342 347 347 347 346 346 348 342 342 340 335 330 327 324 321 315 309 298
219 221 222 221 216 207 202 198 189 183 180 182 180 177 177 173 177 180 181 184 187 181 177 187 295 321 330 333 338 338 341 344 349 350 349 347 348 348 346 342 340 339 335 331 327 321 315 310 303
220 221 218 220 213 206 204 198 186 180 182 181 179 174 172 172 176 180 186 187 189 189 190 202 311 337 342 338 339 343 345 347 350 350 349 349 349 347 346 344 342 342 340 336 331 326 318 309 301
219 217 219 215 212 205 203 197 185 180 180 178 174 172 174 176 174 181 190 191 193 202 204 223 275 323 334 338 344 347 346 349 352 351 351 350 350 349 347 345 344 344 343 338 335 331 323 313 302
214 213 212 209 212 205 197 195 187 180 180 179 176 177 177 175 175 177 187 192 192 197 211 249 285 314 331 340 343 344 346 350 353 353 352 352 352 353 351 351 350 348 346 341 337 334 329 319 308
211 209 209 205 208 205 200 196 192 185 180 179 178 177 178 178 175 177 180 182 189 201 223 262 296 310 323 334 342 347 349 352 353 354 354 355 355 354 355 354 351 349 346 343 340 336 330 323 313
206 205 204 202 205 203 199 196 193 187 178 178 185 181 174 177 179 180 183 183 189 207 238 272 294 313 322 333 348 349 351 354 354 355 356 357 355 354 352 352 349 347 344 342 339 337 334 329 320
204 202 202 201 201 199 195 192 191 187 179 180 183 180 176 179 180 178 180 183 192 219 252 277 292 314 324 335 344 345 350 353 354 355 354 356 356 354 353 352 350 348 346 344 340 338 335 332 324
206 205 203 202 199 197 195 193 191 188 180 181 183 183 178 178 177 176 177 186 203 219 248 270 295 326 335 339 343 345 347 350 353 353 354 356 358 357 355 354 352 350 349 347 345 342 337 335 329
206 207 206 203 200 197 197 195 193 189 188 189 188 185 181 178 178 178 181 193 210 228 245 280 306 324 331 336 342 345 345 347 349 356 358 358 358 358 356 355 354 351 350 348 347 344 341 340 337
203 205 206 201 201 199 199 197 195 193 192 194 194 191 185 185 185 187 195 204 213 221 259 291 309 313 328 341 346 346 345 346 351 355 360 2 2 0 358 356 354 352 351 350 349 347 345 344 343
202 202 200 203 206 204 202 198 198 196 195 196 195 191 189 191 192 197 210 224 230 239 265 290 310 326 345 351 349 345 347 347 351 355 356 357 359 359 356 356 355 355 355 354 354 352 349 348 347
198 195 195 202 204 204 201 200 199 195 195 199 198 192 191 195 199 204 218 228 238 245 271 305 319 331 344 353 354 353 354 354 354 355 355 355 356 355 358 359 359 359 358 358 357 358 355 354 353
191 191 194 196 198 199 199 198 198 196 195 201 202 200 197 201 207 215 225 231 244 257 279 311 323 334 342 349 356 359 1 1 359 357 356 356 357 358 358 359 360 2 2 0 358 359 0 1 360
188 185 193 196 194 197 198 195 193 194 197 200 199 196 199 204 211 217 227 234 240 253 274 291 304 320 340 354 2 5 6 6 5 3 359 359 359 359 359 1 3 4 3 2 359 358 2 5 5
189 188 193 199 197 197 196 192 190 195 198 196 194 196 204 210 215 219 229 234 238 253 264 272 287 312 333 352 6 9 11 13 12 9 5 3 2 2 4 7 8 9 10 9 6 2 2 4 5
190 193 195 199 201 200 197 193 190 193 196 194 193 198 207 213 217 223 230 238 242 247 254 266 286 310 325 338 355 0 3 8 8 8 9 9 10 12 14 15 15 13 13 12 11 9 9 9 9
189 192 192 191 194 198 197 191 192 196 198 197 200 202 209 213 217 224 232 235 236 242 252 260 281 297 302 314 340 349 352 357 0 6 9 12 16 17 16 16 17 16 14 15 15 15 14 11 9
187 191 192 193 187 188 192 191 197 201 203 202 207 207 209 216 223 228 232 231 235 242 252 257 267 281 283 298 325 336 342 350 355 0 4 9 13 13 13 14 14 14 15 16 17 15 12 11 10
184 186 183 183 190 193 196 202 209 212 208 206 210 211 217 222 225 231 233 238 243 248 252 255 264 273 278 284 295 309 323 336 346 353 358 2 7 7 8 8 8 9 12 13 14 12 11 11 9
180 184 183 183 188 198 207 213 215 214 211 211 215 218 221 224 228 235 241 245 248 251 253 253 258 262 268 274 283 292 309 325 340 351 355 357 359 2 2 0 1 4 6 7 8 7 6 6 5
184 185 182 187 194 208 215 219 217 216 214 216 216 221 223 224 231 240 245 249 253 254 254 247 245 249 253 260 268 280 299 321 334 346 351 354 355 356 356 355 356 357 359 0 360 359 0 0 359
187 182 183 192 206 217 220 226 221 216 217 218 217 221 226 226 234 241 246 251 256 256 248 237 240 243 247 253 260 277 289 305 324 338 348 351 352 353 353 351 350 350 353 355 356 356 355 354 351
193 194 196 203 214 219 221 223 219 219 219 219 221 227 232 235 239 239 244 253 255 249 240 238 240 244 249 251 256 265 276 290 308 325 336 340 342 347 350 349 348 347 350 353 353 353 352 350 347
199 204 207 210 213 220 224 223 218 218 218 222 229 234 240 239 240 240 242 249 250 245 238 240 242 245 246 249 253 258 268 281 293 307 323 329 334 341 342 343 345 346 347 348 347 348 347 344 341
205 206 208 210 212 220 224 224 222 222 223 226 232 234 237 238 240 241 243 246 245 240 241 240 242 240 239 246 253 258 265 275 285 301 311 317 323 329 333 338 339 339 340 341 340 340 339 338 336
202 205 213 218 220 222 225 225 225 231 230 230 230 233 236 234 234 232 236 241 242 239 239 236 238 239 241 248 251 259 262 264 278 294 301 307 312 317 325 331 332 333 334 333 332 333 332 332 332
214 220 224 227 231 230 228 225 225 225 229 227 228 231 236 240 240 238 243 249 246 241 241 239 240 241 244 250 252 257 257 266 279 292 301 305 310 315 318 320 322 324 325 326 326 327 328 327 327
Height
5880 5881 5883 5884 5885 5885 5885 5885 5884 5884 5885 5887 5888 5890 5891 5893 5894 5897 5895 5894 5894 5894 5894 5894 5893 5893 5893 5892 5892 5891 5890 5889 5888 5887 5886 5885 5884 5882 5881 5880 5879 5878 5877 5876 5875 5874 5873 5872 5872
5878 5880 5882 5883 5883 5883 5884 5884 5884 5884 5885 5886 5887 5889 5890 5891 5893 5893 5893 5893 5894 5894 5894 5894 5893 5893 5893 5892 5891 5891 5890 5889 5888 5887 5886 5884 5883 5882 5880 5879 5878 5877 5876 5875 5874 5873 5872 5871 5871
5876 5878 5881 5882 5882 5882 5883 5883 5883 5883 5884 5885 5887 5888 5890 5891 5892 5892 5893 5893 5893 5893 5893 5893 5893 5893 5892 5892 5891 5890 5889 5888 5888 5886 5885 5884 5882 5881 5880 5878 5877 5876 5875 5874 5872 5872 5871 5870 5869
5875 5877 5879 5880 5880 5881 5882 5882 5882 5883 5884 5885 5886 5888 5889 5890 5891 5892 5892 5893 5893 5893 5893 5893 5893 5893 5892 5891 5891 5890 5889 5888 5887 5886 5884 5883 5882 5880 5879 5877 5876 5875 5874 5872 5871 5870 5869 5869 5868
5873 5875 5877 5878 5879 5880 5880 5881 5882 5883 5883 5884 5886 5887 5889 5890 5890 5891 5892 5892 5893 5893 5893 5893 5893 5892 5892 5891 5891 5890 5889 5888 5886 5885 5884 5883 5881 5880 5878 5877 5875 5874 5873 5871 5870 5869 5868 5867 5866
5872 5874 5876 5876 5878 5879 5880 5880 5881 5882 5883 5884 5886 5887 5888 5889 5890 5891 5891 5892 5892 5893 5893 5893 5892 5892 5892 5891 5890 5889 5888 5887 5886 5885 5883 5882 5881 5879 5878 5876 5874 5873 5872 5871 5869 5868 5867 5866 5865
5870 5872 5873 5875 5877 5878 5879 5880 5881 5881 5883 5884 5885 5887 5888 5889 5889 5890 5891 5892 5892 5892 5892 5892 5892 5892 5891 5890 5889 5889 5888 5887 5886 5884 5883 5881 5880 5878 5877 5875 5874 5872 5871 5870 5868 5867 5866 5864 5863
5868 5871 5872 5874 5875 5877 5878 5879 5880 5881 5882 5884 5885 5886 5888 5889 5889 5890 5891 5891 5892 5892 5892 5892 5892 5891 5891 5890 5889 5888 5888 5886 5885 5884 5882 5881 5879 5878 5876 5875 5873 5872 5870 5869 5867 5866 5864 5863 5862
5865 5870 5870 5873 5874 5876 5877 5879 5880 5881 5882 5883 5885 5886 5887 5888 5889 5890 5890 5891 5891 5891 5892 5892 5891 5891 5890 5890 5889 5888 5887 5886 5885 5884 5882 5880 5879 5877 5876 5874 5873 5871 5869 5868 5866 5864 5863 5861 5860
5864 5867 5869 5871 5873 5875 5876 5878 5879 5880 5882 5883 5884 5886 5886 5888 5889 5889 5890 5890 5891 5891 5891 5891 5891 5890 5890 5889 5888 5887 5887 5886 5885 5883 5882 5880 5878 5877 5875 5874 5872 5870 5868 5867 5865 5863 5861 5860 5858
5861 5865 5867 5869 5871 5873 5875 5877 5878 5880 5881 5883 5884 5885 5886 5887 5888 5889 5890 5890 5890 5891 5891 5891 5890 5890 5889 5889 5888 5887 5886 5885 5884 5883 5881 5880 5878 5876 5875 5873 5871 5869 5867 5866 5864 5862 5860 5858 5857
5860 5863 5865 5868 5870 5872 5874 5876 5878 5879 5881 5882 5883 5885 5886 5887 5888 5889 5889 5890 5890 5890 5890 5890 5890 5889 5889 5888 5887 5887 5886 5885 5884 5883 5881 5879 5878 5876 5874 5872 5870 5868 5866 5864 5863 5861 5859 5857 5855
5858 5861 5864 5866 5868 5870 5872 5875 5877 5878 5880 5881 5883 5884 5885 5886 5887 5888 5889 5889 5890 5890 5890 5890 5889 5889 5888 5887 5887 5886 5886 5885 5883 5882 5881 5879 5877 5876 5874 5872 5870 5868 5866 5863 5861 5860 5858 5856 5854
5856 5859 5862 5865 5867 5869 5871 5874 5876 5877 5879 5881 5882 5883 5884 5886 5887 5888 5888 5889 5889 5889 5889 5889 5889 5888 5888 5887 5886 5886 5885 5884 5883 5882 5880 5879 5877 5875 5873 5871 5869 5867 5865 5863 5861 5859 5857 5855 5853
5855 5858 5861 5863 5866 5867 5870 5873 5874 5876 5878 5880 5881 5883 5884 5885 5886 5887 5888 5888 5889 5889 5889 5888 5888 5888 5887 5887 5886 5885 5884 5883 5882 5881 5880 5878 5877 5875 5873 5871 5869 5866 5864 5862 5860 5858 5856 5854 5852
5854 5857 5860 5862 5864 5866 5870 5871 5873 5874 5877 5878 5880 5882 5883 5884 5885 5886 5887 5888 5888 5888 5888 5888 5888 5887 5887 5886 5885 5885 5884 5883 5882 5880 5879 5878 5876 5874 5872 5870 5868 5866 5863 5861 5860 5858 5856 5854 5852
5853 5856 5859 5861 5863 5865 5868 5869 5871 5873 5875 5877 5879 5881 5882 5883 5885 5885 5886 5887 5887 5887 5887 5887 5887 5887 5886 5886 5885 5884 5883 5882 5881 5880 5879 5877 5875 5874 5872 5870 5868 5865 5863 5861 5859 5857 5855 5853 5851
5852 5855 5857 5860 5862 5864 5866 5868 5870 5872 5874 5876 5878 5880 5881 5883 5884 5885 5886 5886 5886 5886 5887 5887 5886 5886 5885 5885 5884 5884 5883 5882 5881 5879 5878 5877 5875 5873 5871 5869 5867 5865 5863 5861 5859 5856 5855 5853 5851
5851 5854 5856 5859 5861 5863 5865 5867 5869 5871 5873 5875 5877 5879 5880 5881 5883 5884 5884 5885 5885 5885 5885 5885 5885 5885 5885 5884 5884 5883 5882 5881 5880 5879 5878 5876 5875 5873 5871 5870 5868 5865 5863 5861 5859 5856 5854 5853 5851
5850 5853 5856 5858 5860 5863 5864 5866 5868 5870 5872 5874 5876 5877 5879 5880 5881 5883 5883 5884 5884 5884 5884 5884 5884 5884 5883 5883 5883 5882 5882 5881 5880 5878 5877 5876 5875 5873 5871 5870 5868 5866 5864 5861 5859 5857 5854 5853 5851
5850 5853 5855 5858 5860 5862 5864 5866 5868 5870 5871 5873 5875 5876 5878 5879 5880 5881 5882 5883 5883 5883 5883 5883 5882 5882 5882 5882 5882 5881 5880 5880 5879 5878 5877 5875 5874 5873 5871 5870 5868 5866 5864 5862 5859 5857 5855 5853 5852
5851 5853 5856 5858 5860 5862 5865 5866 5867 5869 5870 5872 5874 5875 5877 5878 5879 5880 5881 5881 5881 5881 5881 5881 5881 5881 5880 5880 5880 5880 5879 5879 5878 5877 5876 5875 5874 5872 5871 5870 5868 5866 5864 5862 5860 5857 5855 5853 5852
5851 5853 5856 5858 5860 5862 5864 5865 5867 5868 5869 5871 5873 5874 5875 5877 5878 5879 5879 5879 5879 5879 5879 5879 5879 5879 5879 5879 5878 5878 5877 5877 5876 5875 5875 5874 5873 5872 5871 5869 5868 5866 5864 5862 5860 5858 5855 5853 5852
5851 5854 5856 5858 5860 5862 5863 5865 5866 5867 5868 5870 5871 5872 5874 5875 5876 5877 5877 5877 5877 5877 5877 5877 5877 5877 5877 5877 5876 5876 5876 5875 5875 5874 5874 5873 5872 5871 5870 5869 5867 5866 5864 5862 5860 5857 5855 5853 5851
5852 5855 5857 5858 5860 5861 5862 5863 5865 5865 5867 5869 5870 5871 5872 5873 5874 5875 5875 5875 5875 5875 5875 5875 5875 5875 5875 5875 5875 5874 5874 5874 5873 5873 5872 5872 5871 5870 5869 5868 5866 5865 5863 5861 5859 5857 5855 5853 5851
5852 5854 5857 5859 5860 5860 5861 5862 5864 5864 5866 5867 5868 5870 5871 5871 5872 5873 5873 5873 5873 5873 5872 5872 5872 5873 5872 5872 5872 5872 5872 5871 5871 5871 5871 5870 5870 5869 5868 5867 5866 5864 5862 5860 5858 5856 5854 5852 5850
5851 5853 5855 5857 5858 5860 5860 5862 5863 5863 5864 5866 5867 5868 5869 5869 5870 5870 5871 5871 5871 5870 5870 5870 5870 5870 5870 5870 5870 5869 5869 5869 5869 5869 5869 5869 5869 5868 5867 5866 5865 5863 5861 5859 5857 5855 5853 5851 5849
5851 5852 5854 5856 5857 5859 5860 5861 5862 5862 5863 5864 5865 5866 5867 5867 5868 5868 5869 5869 5868 5868 5868 5868 5867 5867 5867 5867 5867 5867 5867 5867 5867 5868 5868 5868 5867 5867 5866 5864 5863 5861 5859 5857 5855 5853 5851 5849 5847
5850 5852 5853 5854 5856 5858 5859 5862 5860 5861 5861 5862 5863 5864 5865 5865 5866 5866 5866 5867 5866 5866 5866 5866 5865 5865 5864 5864 5864 5865 5865 5865 5866 5866 5866 5866 5865 5865 5864 5862 5861 5859 5857 5855 5853 5851 5849 5847 5844
5849 5850 5851 5853 5854 5855 5857 5861 5858 5859 5859 5860 5861 5862 5863 5863 5863 5864 5864 5865 5864 5864 5864 5864 5864 5863 5863 5863 5863 5863 5863 5864 5864 5864 5864 5863 5863 5862 5861 5860 5858 5856 5854 5852 5850 5848 5846 5844 5841